IRIDIUM 143

Last updated on Tue Sep 22 2026 00:03:21 GMT+0000 (Coordinated Universal Time)

1 43258U 18030K 26264.54920369 .00000060 00000+0 14350-4 0 9994 2 43258 86.3922 250.2526 0002178 85.4212 274.7233 14.34217537443901
UTC large
Height (km)
Speed (km/s)
/
Latitude / Longitude
Inclination (degrees)
Orbital Period (minutes)
Azimuth
Elevation
Range (km)
Doppler Factor

Next 0 passes for location: London (51.5072 / 0.1276)

No passes found over London.
IRIDIUM 143